Weather History for Al Qaysumah, Saudi Arabia

Change the Weather History Date:

Friday, January 18, 2013

  Actual Average Record
Temperature  
Mean Temperature 52 °F -  
Max Temperature 65 °F 65 °F 68 °F (1998)
Min Temperature 39 °F 44 °F 30 °F (2008)
Degree Days  
Heating Degree Days 13    
Growing Degree Days 2 (Base 50)    
Moisture  
Dew Point 36 °F    
Average Humidity 54    
Maximum Humidity 67    
Minimum Humidity 33    
Precipitation  
Precipitation 0.00 in - - ()
Sea Level Pressure  
Sea Level Pressure 30.12 in    
Wind  
Wind Speed 10 mph ()    
Max Wind Speed 14 mph    
Max Gust Speed -    
Visibility 6.1 miles    
Events      
Averages and records for this station are not official NWS values.
T = Trace of Precipitation, MM = Missing Value Source: Averaged Metar Reports

Daily Weather History Graph

Daily Weather History Graph

Search for Another Location

Airport:

Trip Planner

Search our weather history database for the weather conditions in past years. The results will help you decide how hot, cold, wet, or windy it might be!

Date:

Astronomy

Jan. 18, 2013 Rise Set
Actual Time 6:48 AM AST 5:23 PM AST
Civil Twilight 6:23 AM AST 5:49 PM AST
Nautical Twilight 5:54 AM AST 6:17 PM AST
Astronomical Twilight 5:25 AM AST 6:46 PM AST
Moon 10:54 AM AST (1/18) No Moon Set
Length of Visible Light 11h 26m
Length of Day
10h 35m
Waxing Crescent, 44% of the Moon is Illuminated
Jan 18
Waxing Crescent
Jan 19
First Quarter
Jan 27
Full
Feb 3
Last Quarter
Feb 10
New

Hourly Weather History & Observations

Time (AST) Temp. Windchill Dew Point Humidity Pressure Visibility Wind Dir Wind Speed Gust Speed Precip Events Conditions
12:00 AM 45 °F - 30 °F 44% 30.17 in 6 mi SSE 10.4 mph - -  
12:00 AM 44.6 °F 39.2 °F 30.2 °F 57% 30.15 in - SSE 10.4 mph - N/A   Clear
1:00 AM 44.6 °F 39.2 °F 30.2 °F 57% 30.15 in - SSE 10.4 mph - N/A   Clear
2:00 AM 42.8 °F 36.6 °F 30.2 °F 61% 30.15 in - SSE 11.5 mph - N/A   Clear
3:00 AM 41 °F - 30 °F 55% 30.18 in 6 mi ESE 9.2 mph - -  
3:00 AM 41.0 °F 35.2 °F 30.2 °F 65% 30.15 in - ESE 9.2 mph - N/A   Clear
4:00 AM 41.0 °F 34.7 °F 30.2 °F 65% 30.15 in - SE 10.4 mph - N/A   Clear
5:00 AM 41.0 °F 34.3 °F 30.2 °F 65% 30.15 in - SSE 11.5 mph - N/A   Clear
6:00 AM 41 °F - 30 °F 55% 30.15 in 6 mi South 11.5 mph - -  
6:00 AM 41.0 °F 34.3 °F 30.2 °F 65% 30.12 in - South 11.5 mph - N/A   Clear
7:00 AM 46.4 °F 41.5 °F 32.0 °F 57% 30.12 in 6.2 mi East 10.4 mph - N/A   Partly Cloudy
8:00 AM 46.4 °F 44.3 °F 33.8 °F 62% 30.18 in 6.2 mi East 4.6 mph - N/A   Scattered Clouds
9:00 AM 47 °F - 34 °F 49% 30.21 in 6 mi ESE 11.5 mph - -   Partly Cloudy
9:00 AM 46.4 °F 41.1 °F 33.8 °F 62% 30.18 in 6.2 mi ESE 11.5 mph - N/A   Scattered Clouds
10:00 AM 48.2 °F - 33.8 °F 58% 30.18 in 6.2 mi ESE 11.5 mph - N/A   Scattered Clouds
11:00 AM 50.0 °F - 35.6 °F 58% 30.15 in - SE 13.8 mph - N/A   Clear
12:00 PM 56 °F - 39 °F 42% 30.13 in 6 mi SSE 9.2 mph - -   Partly Cloudy
12:00 PM 55.4 °F - 39.2 °F 54% 30.12 in 6.2 mi SSE 9.2 mph - N/A   Scattered Clouds
1:00 PM 60.8 °F - 41.0 °F 48% 30.09 in 6.2 mi SSE 13.8 mph - N/A   Scattered Clouds
2:00 PM 62.6 °F - 42.8 °F 48% 30.06 in 6.2 mi SSE 11.5 mph - N/A   Scattered Clouds
3:00 PM 63 °F - 41 °F 33% 30.07 in 6 mi SSE 9.2 mph - -   Scattered Clouds
3:00 PM 62.6 °F - 41.0 °F 45% 30.06 in 6.2 mi SSE 9.2 mph - N/A   Scattered Clouds
4:00 PM 64.4 °F - 41.0 °F 42% 30.06 in 6.2 mi ESE 11.5 mph - N/A   Scattered Clouds
5:00 PM 60.8 °F - 41.0 °F 48% 30.06 in 6.2 mi ESE 11.5 mph - N/A   Mostly Cloudy
6:00 PM 58 °F - 41 °F 42% 30.09 in 6 mi ESE 10.4 mph - -   Mostly Cloudy
6:00 PM 59.0 °F - 41.0 °F 51% 30.06 in 6.2 mi ESE 10.4 mph - N/A   Mostly Cloudy
7:00 PM 57.2 °F - 41.0 °F 55% 30.09 in 6.2 mi ESE 11.5 mph - N/A   Mostly Cloudy
8:00 PM 57.2 °F - 41.0 °F 55% 30.09 in 6.2 mi ESE 11.5 mph - N/A   Scattered Clouds
9:00 PM 55 °F - 41 °F 48% 30.12 in 6 mi ESE 11.5 mph - -   Scattered Clouds
9:00 PM 55.4 °F - 41.0 °F 58% 30.09 in 6.2 mi ESE 11.5 mph - N/A   Partly Cloudy
10:00 PM 53.6 °F - 41.0 °F 62% 30.09 in - SE 11.5 mph - N/A   Clear
11:00 PM 51.8 °F - 41.0 °F 67% 30.09 in - SE 11.5 mph - N/A   Clear